TimeCST,TemperatureF,Dew PointF,Humidity,Sea Level PressureIn,VisibilityMPH,Wind Direction,Wind SpeedMPH,Gust SpeedMPH,PrecipitationIn,Events,Conditions,WindDirDegrees,DateUTC
12:53 AM,48.0,32.0,54,30.03,10.0,South,10.4,-,N/A,,Clear,190,2012-11-21 06:53:00
1:53 AM,44.1,30.9,60,30.02,10.0,SSW,8.1,-,N/A,,Clear,200,2012-11-21 07:53:00
2:53 AM,43.0,30.0,60,30.03,10.0,East,3.5,-,N/A,,Clear,100,2012-11-21 08:53:00
3:53 AM,45.0,30.9,58,30.01,10.0,South,3.5,-,N/A,,Clear,180,2012-11-21 09:53:00
4:53 AM,42.1,30.9,65,30.01,10.0,ESE,4.6,-,N/A,,Clear,120,2012-11-21 10:53:00
5:53 AM,37.0,30.0,76,30.03,10.0,SE,4.6,-,N/A,,Clear,130,2012-11-21 11:53:00
6:53 AM,36.0,28.9,76,30.02,10.0,ESE,4.6,-,N/A,,Clear,120,2012-11-21 12:53:00
7:53 AM,36.0,28.9,76,30.02,10.0,SE,5.8,-,N/A,,Clear,130,2012-11-21 13:53:00
8:53 AM,41.0,32.0,70,30.00,10.0,East,3.5,-,N/A,,Clear,100,2012-11-21 14:53:00
9:53 AM,50.0,32.0,50,29.98,10.0,SSW,12.7,-,N/A,,Clear,200,2012-11-21 15:53:00
10:53 AM,55.0,30.9,40,29.95,10.0,South,17.3,-,N/A,,Clear,190,2012-11-21 16:53:00
11:53 AM,60.1,28.0,30,29.91,10.0,South,16.1,25.3,N/A,,Clear,190,2012-11-21 17:53:00
12:53 PM,64.9,28.0,25,29.86,10.0,SSW,16.1,-,N/A,,Clear,200,2012-11-21 18:53:00
1:53 PM,66.0,27.0,23,29.84,10.0,SSW,19.6,24.2,N/A,,Clear,210,2012-11-21 19:53:00
2:53 PM,66.9,28.0,23,29.82,10.0,SSW,19.6,-,N/A,,Clear,200,2012-11-21 20:53:00
3:53 PM,66.0,28.0,24,29.80,10.0,SSW,15.0,-,N/A,,Clear,200,2012-11-21 21:53:00
4:53 PM,62.1,27.0,26,29.81,10.0,SSW,8.1,-,N/A,,Clear,200,2012-11-21 22:53:00
5:53 PM,53.1,25.0,34,29.82,10.0,SSW,10.4,-,N/A,,Clear,200,2012-11-21 23:53:00
6:53 PM,45.0,24.1,44,29.83,10.0,SSW,5.8,-,N/A,,Clear,200,2012-11-22 00:53:00
7:53 PM,39.9,23.0,51,29.83,10.0,Calm,Calm,-,N/A,,Clear,0,2012-11-22 01:53:00
8:53 PM,35.1,21.9,59,29.82,10.0,Calm,Calm,-,N/A,,Clear,0,2012-11-22 02:53:00
9:53 PM,32.0,21.9,66,29.81,10.0,SSW,4.6,-,N/A,,Clear,210,2012-11-22 03:53:00
10:53 PM,30.9,21.0,67,29.78,10.0,Calm,Calm,-,N/A,,Clear,0,2012-11-22 04:53:00
11:53 PM,32.0,21.9,66,29.76,10.0,SSE,4.6,-,N/A,,Clear,150,2012-11-22 05:53:00